Year,Month,Day,Hour,Minute,Value (Times are PST for temperature in C)
2016,09,14,00,00,10.70
2016,09,14,00,01,10.60
2016,09,14,00,02,10.60
2016,09,14,00,03,10.60
2016,09,14,00,04,10.60
2016,09,14,00,05,10.60
2016,09,14,00,06,10.60
2016,09,14,00,07,10.50
2016,09,14,00,08,10.60
2016,09,14,00,09,10.50
2016,09,14,00,10,10.50
2016,09,14,00,11,10.50
2016,09,14,00,12,10.50
2016,09,14,00,13,10.40
2016,09,14,00,14,10.40
2016,09,14,00,15,10.40
2016,09,14,00,16,10.40
2016,09,14,00,17,10.40
2016,09,14,00,18,10.30
2016,09,14,00,19,10.30
2016,09,14,00,20,10.30
2016,09,14,00,21,10.30
2016,09,14,00,22,10.30
2016,09,14,00,23,10.30
2016,09,14,00,24,10.20
2016,09,14,00,25,10.20
2016,09,14,00,26,10.20
2016,09,14,00,27,10.20
2016,09,14,00,28,10.20
2016,09,14,00,29,10.20
2016,09,14,00,30,10.20
2016,09,14,00,31,10.20
2016,09,14,00,32,10.20
2016,09,14,00,33,10.10
2016,09,14,00,34,10.10
2016,09,14,00,35,10.10
2016,09,14,00,36,10.10
2016,09,14,00,37,10.10
2016,09,14,00,38,10.10
2016,09,14,00,39,10.00
2016,09,14,00,40,10.10
2016,09,14,00,41,10.10
2016,09,14,00,42,10.10
2016,09,14,00,43,10.10
2016,09,14,00,44,10.10
2016,09,14,00,45,10.10
2016,09,14,00,46,10.20
2016,09,14,00,47,10.20
2016,09,14,00,48,10.20
2016,09,14,00,49,10.20
2016,09,14,00,50,10.20
2016,09,14,00,51,10.20
2016,09,14,00,52,10.20
2016,09,14,00,53,10.20
2016,09,14,00,54,10.20
2016,09,14,00,55,10.20
2016,09,14,00,56,10.10
2016,09,14,00,57,10.10
2016,09,14,00,58,10.10
2016,09,14,00,59,10.10
2016,09,14,01,00,10.10
2016,09,14,01,01,10.10
2016,09,14,01,02,10.00
2016,09,14,01,03,10.00
2016,09,14,01,04,10.00
2016,09,14,01,05,10.00
2016,09,14,01,06,9.90
2016,09,14,01,07,9.90
2016,09,14,01,08,9.90
2016,09,14,01,09,9.90
2016,09,14,01,10,9.90
2016,09,14,01,11,9.90
2016,09,14,01,12,9.90
2016,09,14,01,13,9.90
2016,09,14,01,14,9.80
2016,09,14,01,15,9.80
2016,09,14,01,16,9.80
2016,09,14,01,17,9.80
2016,09,14,01,18,9.80
2016,09,14,01,19,9.80
2016,09,14,01,20,9.80
2016,09,14,01,21,9.70
2016,09,14,01,22,9.70
2016,09,14,01,23,9.70
2016,09,14,01,24,9.70
2016,09,14,01,25,9.80
2016,09,14,01,26,9.80
2016,09,14,01,27,9.80
2016,09,14,01,28,9.70
2016,09,14,01,29,9.70
2016,09,14,01,30,9.70
2016,09,14,01,31,9.70
2016,09,14,01,32,9.70
2016,09,14,01,33,9.80
2016,09,14,01,34,9.80
2016,09,14,01,35,9.80
2016,09,14,01,36,9.80
2016,09,14,01,37,9.80
2016,09,14,01,38,9.80
2016,09,14,01,39,9.80
2016,09,14,01,40,9.80
2016,09,14,01,41,9.80
2016,09,14,01,42,9.80
2016,09,14,01,43,9.80
2016,09,14,01,44,9.80
2016,09,14,01,45,9.70
2016,09,14,01,46,9.70
2016,09,14,01,47,9.70
2016,09,14,01,48,9.70
2016,09,14,01,49,9.70
2016,09,14,01,50,9.70
2016,09,14,01,51,9.70
2016,09,14,01,52,9.70
2016,09,14,01,53,9.70
2016,09,14,01,54,9.70
2016,09,14,01,55,9.60
2016,09,14,01,56,9.60
2016,09,14,01,57,9.60
2016,09,14,01,58,9.60
2016,09,14,01,59,9.60
2016,09,14,02,00,9.60
2016,09,14,02,01,9.60
2016,09,14,02,02,9.60
2016,09,14,02,03,9.60
2016,09,14,02,04,9.60
2016,09,14,02,05,9.60
2016,09,14,02,06,9.60
2016,09,14,02,07,9.60
2016,09,14,02,08,9.60
2016,09,14,02,09,9.60
2016,09,14,02,10,9.60
2016,09,14,02,11,9.60
2016,09,14,02,12,9.60
2016,09,14,02,13,9.60
2016,09,14,02,14,9.60
2016,09,14,02,15,9.60
2016,09,14,02,16,9.60
2016,09,14,02,17,9.60
2016,09,14,02,18,9.50
2016,09,14,02,19,9.50
2016,09,14,02,20,9.50
2016,09,14,02,21,9.50
2016,09,14,02,22,9.50
2016,09,14,02,23,9.50
2016,09,14,02,24,9.60
2016,09,14,02,25,9.60
2016,09,14,02,26,9.60
2016,09,14,02,27,9.60
2016,09,14,02,28,9.60
2016,09,14,02,29,9.70
2016,09,14,02,30,9.70
2016,09,14,02,31,9.70
2016,09,14,02,32,9.70
2016,09,14,02,33,9.70
2016,09,14,02,34,9.70
2016,09,14,02,35,9.70
2016,09,14,02,36,9.70
2016,09,14,02,37,9.70
2016,09,14,02,38,9.70
2016,09,14,02,39,9.70
2016,09,14,02,40,9.70
2016,09,14,02,41,9.70
2016,09,14,02,42,9.60
2016,09,14,02,43,9.60
2016,09,14,02,44,9.60
2016,09,14,02,45,9.60
2016,09,14,02,46,9.60
2016,09,14,02,47,9.60
2016,09,14,02,48,9.50
2016,09,14,02,49,9.50
2016,09,14,02,50,9.50
2016,09,14,02,51,9.50
2016,09,14,02,52,9.50
2016,09,14,02,53,9.60
2016,09,14,02,54,9.60
2016,09,14,02,55,9.60
2016,09,14,02,56,9.60
2016,09,14,02,57,9.60
2016,09,14,02,58,9.60
2016,09,14,02,59,9.60
2016,09,14,03,00,9.60
2016,09,14,03,01,9.60
2016,09,14,03,02,9.60
2016,09,14,03,03,9.60
2016,09,14,03,04,9.60
2016,09,14,03,05,9.50
2016,09,14,03,06,9.50
2016,09,14,03,07,9.50
2016,09,14,03,08,9.50
2016,09,14,03,09,9.50
2016,09,14,03,10,9.50
2016,09,14,03,11,9.50
2016,09,14,03,12,9.60
2016,09,14,03,13,9.60
2016,09,14,03,14,9.70
2016,09,14,03,15,9.80
2016,09,14,03,16,9.90
2016,09,14,03,17,9.90
2016,09,14,03,18,9.90
2016,09,14,03,19,9.90
2016,09,14,03,20,9.90
2016,09,14,03,21,9.90
2016,09,14,03,22,9.80
2016,09,14,03,23,9.80
2016,09,14,03,24,9.80
2016,09,14,03,25,9.70
2016,09,14,03,26,9.70
2016,09,14,03,27,9.70
2016,09,14,03,28,9.70
2016,09,14,03,29,9.70
2016,09,14,03,30,9.70
2016,09,14,03,31,9.70
2016,09,14,03,32,9.70
2016,09,14,03,33,9.70
2016,09,14,03,34,9.70
2016,09,14,03,35,9.70
2016,09,14,03,36,9.70
2016,09,14,03,37,9.70
2016,09,14,03,38,9.70
2016,09,14,03,39,9.80
2016,09,14,03,40,9.80
2016,09,14,03,41,9.80
2016,09,14,03,42,9.80
2016,09,14,03,43,9.80
2016,09,14,03,44,9.80
2016,09,14,03,45,9.70
2016,09,14,03,46,9.70
2016,09,14,03,47,9.70
2016,09,14,03,48,9.70
2016,09,14,03,49,9.80
2016,09,14,03,50,9.80
2016,09,14,03,51,9.80
2016,09,14,03,52,9.80
2016,09,14,03,53,9.80
2016,09,14,03,54,9.80
2016,09,14,03,55,9.80
2016,09,14,03,56,9.80
2016,09,14,03,57,9.90
2016,09,14,03,58,9.90
2016,09,14,03,59,9.90
2016,09,14,04,00,10.00
2016,09,14,04,01,10.00
2016,09,14,04,02,10.00
2016,09,14,04,03,10.00
2016,09,14,04,04,10.00
2016,09,14,04,05,10.10
2016,09,14,04,06,10.10
2016,09,14,04,07,10.10
2016,09,14,04,08,10.10
2016,09,14,04,09,10.10
2016,09,14,04,10,10.10
2016,09,14,04,11,10.10
2016,09,14,04,12,10.10
2016,09,14,04,13,10.10
2016,09,14,04,14,10.20
2016,09,14,04,15,10.20
2016,09,14,04,16,10.20
2016,09,14,04,17,10.20
2016,09,14,04,18,10.20
2016,09,14,04,19,10.20
2016,09,14,04,20,10.20
2016,09,14,04,21,10.20
2016,09,14,04,22,10.20
2016,09,14,04,23,10.30
2016,09,14,04,24,10.30
2016,09,14,04,25,10.30
2016,09,14,04,26,10.30
2016,09,14,04,27,10.30
2016,09,14,04,28,10.30
2016,09,14,04,29,10.30
2016,09,14,04,30,10.30
2016,09,14,04,31,10.30
2016,09,14,04,32,10.30
2016,09,14,04,33,10.30
2016,09,14,04,34,10.30
2016,09,14,04,35,10.20
2016,09,14,04,36,10.20
2016,09,14,04,37,10.20
2016,09,14,04,38,10.20
2016,09,14,04,39,10.20
2016,09,14,04,40,10.20
2016,09,14,04,41,10.20
2016,09,14,04,42,10.20
2016,09,14,04,43,10.20
2016,09,14,04,44,10.20
2016,09,14,04,45,10.20
2016,09,14,04,46,10.20
2016,09,14,04,47,10.30
2016,09,14,04,48,10.30
2016,09,14,04,49,10.30
2016,09,14,04,50,10.30
2016,09,14,04,51,10.30
2016,09,14,04,52,10.30
2016,09,14,04,53,10.30
2016,09,14,04,54,10.30
2016,09,14,04,55,10.30
2016,09,14,04,56,10.30
2016,09,14,04,57,10.30
2016,09,14,04,58,10.40
2016,09,14,04,59,10.40
2016,09,14,05,00,10.40
2016,09,14,05,01,10.40
2016,09,14,05,02,10.50
2016,09,14,05,03,10.50
2016,09,14,05,04,10.60
2016,09,14,05,05,10.60
2016,09,14,05,06,10.60
2016,09,14,05,07,10.70
2016,09,14,05,08,10.70
2016,09,14,05,09,10.70
2016,09,14,05,10,10.70
2016,09,14,05,11,10.70
2016,09,14,05,12,10.70
2016,09,14,05,13,10.70
2016,09,14,05,14,10.70
2016,09,14,05,15,10.60
2016,09,14,05,16,10.60
2016,09,14,05,17,10.60
2016,09,14,05,18,10.60
2016,09,14,05,19,10.60
2016,09,14,05,20,10.70
2016,09,14,05,21,10.70
2016,09,14,05,22,10.70
2016,09,14,05,23,10.70
2016,09,14,05,24,10.70
2016,09,14,05,25,10.70
2016,09,14,05,26,10.70
2016,09,14,05,27,10.70
2016,09,14,05,28,10.70
2016,09,14,05,29,10.70
2016,09,14,05,30,10.70
2016,09,14,05,31,10.70
2016,09,14,05,32,10.70
2016,09,14,05,33,10.70
2016,09,14,05,34,10.70
2016,09,14,05,35,10.70
2016,09,14,05,36,10.70
2016,09,14,05,37,10.70
2016,09,14,05,38,10.70
2016,09,14,05,39,10.70
2016,09,14,05,40,10.70
2016,09,14,05,41,10.70
2016,09,14,05,42,10.70
2016,09,14,05,43,10.70
2016,09,14,05,44,10.70
2016,09,14,05,45,10.70
2016,09,14,05,46,10.70
2016,09,14,05,47,10.70
2016,09,14,05,48,10.70
2016,09,14,05,49,10.80
2016,09,14,05,50,10.80
2016,09,14,05,51,10.80
2016,09,14,05,52,10.80
2016,09,14,05,53,10.80
2016,09,14,05,54,10.80
2016,09,14,05,55,10.80
2016,09,14,05,56,10.80
2016,09,14,05,57,10.80
2016,09,14,05,58,10.80
2016,09,14,05,59,10.80
2016,09,14,06,00,10.80
2016,09,14,06,01,10.80
2016,09,14,06,02,10.80
2016,09,14,06,03,10.90
2016,09,14,06,04,11.00
2016,09,14,06,05,11.10
2016,09,14,06,06,11.10
2016,09,14,06,07,11.20
2016,09,14,06,08,11.20
2016,09,14,06,09,11.20
2016,09,14,06,10,11.20
2016,09,14,06,11,11.20
2016,09,14,06,12,11.20
2016,09,14,06,13,11.20
2016,09,14,06,14,11.20
2016,09,14,06,15,11.10
2016,09,14,06,16,11.10
2016,09,14,06,17,11.10
2016,09,14,06,18,11.10
2016,09,14,06,19,11.10
2016,09,14,06,20,11.10
2016,09,14,06,21,11.10
2016,09,14,06,22,11.00
2016,09,14,06,23,11.00
2016,09,14,06,24,11.00
2016,09,14,06,25,11.00
2016,09,14,06,26,11.00
2016,09,14,06,27,11.00
2016,09,14,06,28,11.00
2016,09,14,06,29,11.10
2016,09,14,06,30,11.10
2016,09,14,06,31,11.10
2016,09,14,06,32,11.10
2016,09,14,06,33,11.10
2016,09,14,06,34,11.10
2016,09,14,06,35,11.10
2016,09,14,06,36,11.10
2016,09,14,06,37,11.10
2016,09,14,06,38,11.10
2016,09,14,06,39,11.10
2016,09,14,06,40,11.10
2016,09,14,06,41,11.10
2016,09,14,06,42,11.10
2016,09,14,06,43,11.20
2016,09,14,06,44,11.20
2016,09,14,06,45,11.20
2016,09,14,06,46,11.20
2016,09,14,06,47,11.20
2016,09,14,06,48,11.20
2016,09,14,06,49,11.20
2016,09,14,06,50,11.20
2016,09,14,06,51,11.20
2016,09,14,06,52,11.20
2016,09,14,06,53,11.20
2016,09,14,06,54,11.20
2016,09,14,06,55,11.20
2016,09,14,06,56,11.20
2016,09,14,06,57,11.30
2016,09,14,06,58,11.30
2016,09,14,06,59,11.30
2016,09,14,07,00,11.30
2016,09,14,07,01,11.20
2016,09,14,07,02,11.20
2016,09,14,07,03,11.20
2016,09,14,07,04,11.20
2016,09,14,07,05,11.20
2016,09,14,07,06,11.20
2016,09,14,07,07,11.20
2016,09,14,07,08,11.20
2016,09,14,07,09,11.20
2016,09,14,07,10,11.20
2016,09,14,07,11,11.20
2016,09,14,07,12,11.20
2016,09,14,07,13,11.20
2016,09,14,07,14,11.20
2016,09,14,07,15,11.20
2016,09,14,07,16,11.20
2016,09,14,07,17,11.20
2016,09,14,07,18,11.20
2016,09,14,07,19,11.20
2016,09,14,07,20,11.20
2016,09,14,07,21,11.20
2016,09,14,07,22,11.20
2016,09,14,07,23,11.20
2016,09,14,07,24,11.20
2016,09,14,07,25,11.30
2016,09,14,07,26,11.30
2016,09,14,07,27,11.30
2016,09,14,07,28,11.30
2016,09,14,07,29,11.30
2016,09,14,07,30,11.30
2016,09,14,07,31,11.30
2016,09,14,07,32,11.30
2016,09,14,07,33,11.30
2016,09,14,07,34,11.30
2016,09,14,07,35,11.30
2016,09,14,07,36,11.30
2016,09,14,07,37,11.30
2016,09,14,07,38,11.30
2016,09,14,07,39,11.30
2016,09,14,07,40,11.30
2016,09,14,07,41,11.40
2016,09,14,07,42,11.40
2016,09,14,07,43,11.40
2016,09,14,07,44,11.40
2016,09,14,07,45,11.40
2016,09,14,07,46,11.40
2016,09,14,07,47,11.40
2016,09,14,07,48,11.50
2016,09,14,07,49,11.50
2016,09,14,07,50,11.50
2016,09,14,07,51,11.50
2016,09,14,07,52,11.60
2016,09,14,07,53,11.60
2016,09,14,07,54,11.60
2016,09,14,07,55,11.60
2016,09,14,07,56,11.60
2016,09,14,07,57,11.60
2016,09,14,07,58,11.60
2016,09,14,07,59,11.60
2016,09,14,08,00,11.60
2016,09,14,08,01,11.60
2016,09,14,08,02,11.70
2016,09,14,08,03,11.70
2016,09,14,08,04,11.70
2016,09,14,08,05,11.70
2016,09,14,08,06,11.70
2016,09,14,08,07,11.70
2016,09,14,08,08,11.70
2016,09,14,08,09,11.70
2016,09,14,08,10,11.70
2016,09,14,08,11,11.70
2016,09,14,08,12,11.80
2016,09,14,08,13,11.80
2016,09,14,08,14,11.80
2016,09,14,08,15,11.80
2016,09,14,08,16,11.80
2016,09,14,08,17,11.80
2016,09,14,08,18,11.80
2016,09,14,08,19,11.80
2016,09,14,08,20,11.90
2016,09,14,08,21,11.90
2016,09,14,08,22,11.90
2016,09,14,08,23,11.90
2016,09,14,08,24,11.90
2016,09,14,08,25,11.90
2016,09,14,08,26,12.00
2016,09,14,08,27,12.00
2016,09,14,08,28,12.00
2016,09,14,08,29,12.00
2016,09,14,08,30,12.10
2016,09,14,08,31,12.10
2016,09,14,08,32,12.10
2016,09,14,08,33,12.10
2016,09,14,08,34,12.10
2016,09,14,08,35,12.10
2016,09,14,08,36,12.10
2016,09,14,08,37,12.10
2016,09,14,08,38,12.20
2016,09,14,08,39,12.20
2016,09,14,08,40,12.20
2016,09,14,08,41,12.20
2016,09,14,08,42,12.20
2016,09,14,08,43,12.30
2016,09,14,08,44,12.30
2016,09,14,08,45,12.30
2016,09,14,08,46,12.30
2016,09,14,08,47,12.40
2016,09,14,08,48,12.40
2016,09,14,08,49,12.40
2016,09,14,08,50,12.40
2016,09,14,08,51,12.50
2016,09,14,08,52,12.50
2016,09,14,08,53,12.50
2016,09,14,08,54,12.50
2016,09,14,08,55,12.60
2016,09,14,08,56,12.60
2016,09,14,08,57,12.60
2016,09,14,08,58,12.60
2016,09,14,08,59,12.60
2016,09,14,09,00,12.60
2016,09,14,09,01,12.70
2016,09,14,09,02,12.70
2016,09,14,09,03,12.70
2016,09,14,09,04,12.70
2016,09,14,09,05,12.70
2016,09,14,09,06,12.70
2016,09,14,09,07,12.80
2016,09,14,09,08,12.80
2016,09,14,09,09,12.80
2016,09,14,09,10,12.80
2016,09,14,09,11,12.80
2016,09,14,09,12,12.80
2016,09,14,09,13,12.80
2016,09,14,09,14,12.90
2016,09,14,09,15,12.90
2016,09,14,09,16,12.90
2016,09,14,09,17,12.90
2016,09,14,09,18,12.90
2016,09,14,09,19,12.90
2016,09,14,09,20,13.00
2016,09,14,09,21,13.00
2016,09,14,09,22,13.00
2016,09,14,09,23,13.00
2016,09,14,09,24,13.00
2016,09,14,09,25,13.10
2016,09,14,09,26,13.10
2016,09,14,09,27,13.10
2016,09,14,09,28,13.10
2016,09,14,09,29,13.10
2016,09,14,09,30,13.10
2016,09,14,09,31,13.10
2016,09,14,09,32,13.10
2016,09,14,09,33,13.10
2016,09,14,09,34,13.10
2016,09,14,09,35,13.20
2016,09,14,09,36,13.20
2016,09,14,09,37,13.20
2016,09,14,09,38,13.20
2016,09,14,09,39,13.20
2016,09,14,09,40,13.20
2016,09,14,09,41,13.20
2016,09,14,09,42,13.30
2016,09,14,09,43,13.30
2016,09,14,09,44,13.30
2016,09,14,09,45,13.30
2016,09,14,09,46,13.30
2016,09,14,09,47,13.40
2016,09,14,09,48,13.40
2016,09,14,09,49,13.40
2016,09,14,09,50,13.40
2016,09,14,09,51,13.40
2016,09,14,09,52,13.40
2016,09,14,09,53,13.40
2016,09,14,09,54,13.40
2016,09,14,09,55,13.50
2016,09,14,09,56,13.50
2016,09,14,09,57,13.50
2016,09,14,09,58,13.50
2016,09,14,09,59,13.50
2016,09,14,10,00,13.50
2016,09,14,10,01,13.60
2016,09,14,10,02,13.60
2016,09,14,10,03,13.60
2016,09,14,10,04,13.60
2016,09,14,10,05,13.60
2016,09,14,10,06,13.60
2016,09,14,10,07,13.60
2016,09,14,10,08,13.60
2016,09,14,10,09,13.70
2016,09,14,10,10,13.70
2016,09,14,10,11,13.70
2016,09,14,10,12,13.70
2016,09,14,10,13,13.70
2016,09,14,10,14,13.80
2016,09,14,10,15,13.80
2016,09,14,10,16,13.70
2016,09,14,10,17,13.80
2016,09,14,10,18,13.80
2016,09,14,10,19,13.80
2016,09,14,10,20,13.80
2016,09,14,10,21,13.80
2016,09,14,10,22,13.70
2016,09,14,10,23,13.70
2016,09,14,10,24,13.70
2016,09,14,10,25,13.70
2016,09,14,10,26,13.70
2016,09,14,10,27,13.70
2016,09,14,10,28,13.70
2016,09,14,10,29,13.70
2016,09,14,10,30,13.70
2016,09,14,10,31,13.70
2016,09,14,10,32,13.70
2016,09,14,10,33,13.70
2016,09,14,10,34,13.70
2016,09,14,10,35,13.70
2016,09,14,10,36,13.70
2016,09,14,10,37,13.70
2016,09,14,10,38,13.70
2016,09,14,10,39,13.80
2016,09,14,10,40,13.80
2016,09,14,10,41,13.80
2016,09,14,10,42,13.80
2016,09,14,10,43,13.80
2016,09,14,10,44,13.80
2016,09,14,10,45,13.80
2016,09,14,10,46,13.80
2016,09,14,10,47,13.80
2016,09,14,10,48,13.80
2016,09,14,10,49,13.80
2016,09,14,10,50,13.80
2016,09,14,10,51,13.80
2016,09,14,10,52,13.80
2016,09,14,10,53,13.80
2016,09,14,10,54,13.80
2016,09,14,10,55,13.90
2016,09,14,10,56,13.90
2016,09,14,10,57,13.90
2016,09,14,10,58,13.90
2016,09,14,10,59,13.90
2016,09,14,11,00,13.90
2016,09,14,11,01,13.90
2016,09,14,11,02,13.90
2016,09,14,11,03,13.90
2016,09,14,11,04,13.90
2016,09,14,11,05,14.00
2016,09,14,11,06,14.00
2016,09,14,11,07,14.00
2016,09,14,11,08,14.00
2016,09,14,11,09,14.00
2016,09,14,11,10,14.00
2016,09,14,11,11,14.00
2016,09,14,11,12,14.00
2016,09,14,11,13,14.10
2016,09,14,11,14,14.10
2016,09,14,11,15,14.10
2016,09,14,11,16,14.20
2016,09,14,11,17,14.20
2016,09,14,11,18,14.10
2016,09,14,11,19,14.10
2016,09,14,11,20,14.10
2016,09,14,11,21,14.20
2016,09,14,11,22,14.20
2016,09,14,11,23,14.20
2016,09,14,11,24,14.20
2016,09,14,11,25,14.20
2016,09,14,11,26,14.20
2016,09,14,11,27,14.20
2016,09,14,11,28,14.10
2016,09,14,11,29,14.20
2016,09,14,11,30,14.20
2016,09,14,11,31,14.20
2016,09,14,11,32,14.30
2016,09,14,11,33,14.30
2016,09,14,11,34,14.30
2016,09,14,11,35,14.30
2016,09,14,11,36,14.40
2016,09,14,11,37,14.40
2016,09,14,11,38,14.40
2016,09,14,11,39,14.50
2016,09,14,11,40,14.60
2016,09,14,11,41,14.60
2016,09,14,11,42,14.70
2016,09,14,11,43,14.80
2016,09,14,11,44,14.80
2016,09,14,11,45,14.90
2016,09,14,11,46,15.00
2016,09,14,11,47,15.10
2016,09,14,11,48,15.10
2016,09,14,11,49,15.20
2016,09,14,11,50,15.30
2016,09,14,11,51,15.40
2016,09,14,11,52,15.50
2016,09,14,11,53,15.60
2016,09,14,11,54,15.70
2016,09,14,11,55,15.80
2016,09,14,11,56,15.90
2016,09,14,11,57,15.90
2016,09,14,11,58,15.90
2016,09,14,11,59,15.90
2016,09,14,12,00,15.90
2016,09,14,12,01,15.90
2016,09,14,12,02,15.90
2016,09,14,12,03,15.90
2016,09,14,12,04,15.90
2016,09,14,12,05,15.90
2016,09,14,12,06,15.80
2016,09,14,12,07,15.80
2016,09,14,12,08,15.90
2016,09,14,12,09,15.90
2016,09,14,12,10,15.90
2016,09,14,12,11,15.90
2016,09,14,12,12,15.90
2016,09,14,12,13,15.80
2016,09,14,12,14,15.70
2016,09,14,12,15,15.70
2016,09,14,12,16,15.60
2016,09,14,12,17,15.60
2016,09,14,12,18,15.60
2016,09,14,12,19,15.60
2016,09,14,12,20,15.60
2016,09,14,12,21,15.70
2016,09,14,12,22,15.70
2016,09,14,12,23,15.80
2016,09,14,12,24,15.90
2016,09,14,12,25,15.90
2016,09,14,12,26,16.00
2016,09,14,12,27,16.10
2016,09,14,12,28,16.10
2016,09,14,12,29,16.10
2016,09,14,12,30,16.10
2016,09,14,12,31,16.10
2016,09,14,12,32,16.10
2016,09,14,12,33,16.10
2016,09,14,12,34,16.20
2016,09,14,12,35,16.20
2016,09,14,12,36,16.30
2016,09,14,12,37,16.30
2016,09,14,12,38,16.40
2016,09,14,12,39,16.50
2016,09,14,12,40,16.60
2016,09,14,12,41,16.60
2016,09,14,12,42,16.60
2016,09,14,12,43,16.70
2016,09,14,12,44,16.70
2016,09,14,12,45,16.70
2016,09,14,12,46,16.70
2016,09,14,12,47,16.70
2016,09,14,12,48,16.70
2016,09,14,12,49,16.70
2016,09,14,12,50,16.60
2016,09,14,12,51,16.60
2016,09,14,12,52,16.70
2016,09,14,12,53,16.70
2016,09,14,12,54,16.70
2016,09,14,12,55,16.70
2016,09,14,12,56,16.70
2016,09,14,12,57,16.70
2016,09,14,12,58,16.80
2016,09,14,12,59,16.80
2016,09,14,13,00,16.80
2016,09,14,13,01,16.90
2016,09,14,13,02,17.00
2016,09,14,13,03,17.10
2016,09,14,13,04,17.10
2016,09,14,13,05,17.10
2016,09,14,13,06,17.10
2016,09,14,13,07,17.10
2016,09,14,13,08,17.10
2016,09,14,13,09,17.10
2016,09,14,13,10,17.10
2016,09,14,13,11,17.10
2016,09,14,13,12,17.10
2016,09,14,13,13,17.10
2016,09,14,13,14,17.10
2016,09,14,13,15,17.00
2016,09,14,13,16,16.90
2016,09,14,13,17,16.80
2016,09,14,13,18,16.80
2016,09,14,13,19,16.80
2016,09,14,13,20,16.70
2016,09,14,13,21,16.80
2016,09,14,13,22,16.80
2016,09,14,13,23,16.80
2016,09,14,13,24,16.80
2016,09,14,13,25,16.80
2016,09,14,13,26,16.80
2016,09,14,13,27,16.70
2016,09,14,13,28,16.70
2016,09,14,13,29,16.70
2016,09,14,13,30,16.70
2016,09,14,13,31,16.80
2016,09,14,13,32,16.80
2016,09,14,13,33,16.90
2016,09,14,13,34,16.90
2016,09,14,13,35,17.00
2016,09,14,13,36,17.00
2016,09,14,13,37,17.00
2016,09,14,13,38,17.00
2016,09,14,13,39,17.00
2016,09,14,13,40,16.90
2016,09,14,13,41,16.90
2016,09,14,13,42,16.90
2016,09,14,13,43,17.00
2016,09,14,13,44,17.10
2016,09,14,13,45,17.10
2016,09,14,13,46,17.20
2016,09,14,13,47,17.20
2016,09,14,13,48,17.30
2016,09,14,13,49,17.40
2016,09,14,13,50,17.50
2016,09,14,13,51,17.60
2016,09,14,13,52,17.60
2016,09,14,13,53,17.60
2016,09,14,13,54,17.50
2016,09,14,13,55,17.60
2016,09,14,13,56,17.60
2016,09,14,13,57,17.60
2016,09,14,13,58,17.70
2016,09,14,13,59,17.80
2016,09,14,14,00,17.90
2016,09,14,14,01,17.90
2016,09,14,14,02,18.00
2016,09,14,14,03,18.10
2016,09,14,14,04,18.10
2016,09,14,14,05,18.20
2016,09,14,14,06,18.20
2016,09,14,14,07,18.10
2016,09,14,14,08,18.10
2016,09,14,14,09,18.10
2016,09,14,14,10,18.10
2016,09,14,14,11,18.20
2016,09,14,14,12,18.20
2016,09,14,14,13,18.20
2016,09,14,14,14,18.20
2016,09,14,14,15,18.20
2016,09,14,14,16,18.20
2016,09,14,14,17,18.20
2016,09,14,14,18,18.10
2016,09,14,14,19,18.10
2016,09,14,14,20,18.10
2016,09,14,14,21,18.00
2016,09,14,14,22,17.90
2016,09,14,14,23,17.80
2016,09,14,14,24,17.70
2016,09,14,14,25,17.60
2016,09,14,14,26,17.50
2016,09,14,14,27,17.40
2016,09,14,14,28,17.40
2016,09,14,14,29,17.40
2016,09,14,14,30,17.40
2016,09,14,14,31,17.40
2016,09,14,14,32,17.40
2016,09,14,14,33,17.40
2016,09,14,14,34,17.30
2016,09,14,14,35,17.30
2016,09,14,14,36,17.30
2016,09,14,14,37,17.30
2016,09,14,14,38,17.20
2016,09,14,14,39,17.10
2016,09,14,14,40,17.00
2016,09,14,14,41,16.90
2016,09,14,14,42,16.80
2016,09,14,14,43,16.80
2016,09,14,14,44,16.70
2016,09,14,14,45,16.60
2016,09,14,14,46,16.60
2016,09,14,14,47,16.60
2016,09,14,14,48,16.60
2016,09,14,14,49,16.60
2016,09,14,14,50,16.60
2016,09,14,14,51,16.60
2016,09,14,14,52,16.60
2016,09,14,14,53,16.50
2016,09,14,14,54,16.50
2016,09,14,14,55,16.50
2016,09,14,14,56,16.50
2016,09,14,14,57,16.50
2016,09,14,14,58,16.40
2016,09,14,14,59,16.40
2016,09,14,15,00,16.40
2016,09,14,15,01,16.40
2016,09,14,15,02,16.40
2016,09,14,15,03,16.50
2016,09,14,15,04,16.50
2016,09,14,15,05,16.50
2016,09,14,15,06,16.50
2016,09,14,15,07,16.60
2016,09,14,15,08,16.60
2016,09,14,15,09,16.70
2016,09,14,15,10,16.80
2016,09,14,15,11,16.90
2016,09,14,15,12,17.00
2016,09,14,15,13,17.00
2016,09,14,15,14,17.10
2016,09,14,15,15,17.10
2016,09,14,15,16,17.10
2016,09,14,15,17,17.10
2016,09,14,15,18,17.10
2016,09,14,15,19,17.20
2016,09,14,15,20,17.20
2016,09,14,15,21,17.30
2016,09,14,15,22,17.30
2016,09,14,15,23,17.40
2016,09,14,15,24,17.40
2016,09,14,15,25,17.40
2016,09,14,15,26,17.40
2016,09,14,15,27,17.40
2016,09,14,15,28,17.40
2016,09,14,15,29,17.50
2016,09,14,15,30,17.50
2016,09,14,15,31,17.60
2016,09,14,15,32,17.60
2016,09,14,15,33,17.70
2016,09,14,15,34,17.70
2016,09,14,15,35,17.70
2016,09,14,15,36,17.70
2016,09,14,15,37,17.80
2016,09,14,15,38,17.70
2016,09,14,15,39,17.70
2016,09,14,15,40,17.60
2016,09,14,15,41,17.50
2016,09,14,15,42,17.50
2016,09,14,15,43,17.40
2016,09,14,15,44,17.40
2016,09,14,15,45,17.30
2016,09,14,15,46,17.40
2016,09,14,15,47,17.40
2016,09,14,15,48,17.40
2016,09,14,15,49,17.40
2016,09,14,15,50,17.30
2016,09,14,15,51,17.40
2016,09,14,15,52,17.40
2016,09,14,15,53,17.40
2016,09,14,15,54,17.40
2016,09,14,15,55,17.40
2016,09,14,15,56,17.30
2016,09,14,15,57,17.30
2016,09,14,15,58,17.30
2016,09,14,15,59,17.30
2016,09,14,16,00,17.40
2016,09,14,16,01,17.40
2016,09,14,16,02,17.40
2016,09,14,16,03,17.40
2016,09,14,16,04,17.40
2016,09,14,16,05,17.40
2016,09,14,16,06,17.40
2016,09,14,16,07,17.40
2016,09,14,16,08,17.40
2016,09,14,16,09,17.40
2016,09,14,16,10,17.40
2016,09,14,16,11,17.30
2016,09,14,16,12,17.30
2016,09,14,16,13,17.30
2016,09,14,16,14,17.40
2016,09,14,16,15,17.40
2016,09,14,16,16,17.40
2016,09,14,16,17,17.50
2016,09,14,16,18,17.50
2016,09,14,16,19,17.50
2016,09,14,16,20,17.60
2016,09,14,16,21,17.60
2016,09,14,16,22,17.70
2016,09,14,16,23,17.70
2016,09,14,16,24,17.70
2016,09,14,16,25,17.80
2016,09,14,16,26,17.90
2016,09,14,16,27,17.90
2016,09,14,16,28,18.00
2016,09,14,16,29,18.00
2016,09,14,16,30,18.10
2016,09,14,16,31,18.10
2016,09,14,16,32,18.20
2016,09,14,16,33,18.30
2016,09,14,16,34,18.30
2016,09,14,16,35,18.30
2016,09,14,16,36,18.30
2016,09,14,16,37,18.30
2016,09,14,16,38,18.40
2016,09,14,16,39,18.30
2016,09,14,16,40,18.30
2016,09,14,16,41,18.30
2016,09,14,16,42,18.30
2016,09,14,16,43,18.20
2016,09,14,16,44,18.20
2016,09,14,16,45,18.20
2016,09,14,16,46,18.20
2016,09,14,16,47,18.20
2016,09,14,16,48,18.20
2016,09,14,16,49,18.20
2016,09,14,16,50,18.20
2016,09,14,16,51,18.20
2016,09,14,16,52,18.20
2016,09,14,16,53,18.20
2016,09,14,16,54,18.20
2016,09,14,16,55,18.20
2016,09,14,16,56,18.20
2016,09,14,16,57,18.20
2016,09,14,16,58,18.20
2016,09,14,16,59,18.20
2016,09,14,17,00,18.10
2016,09,14,17,01,18.10
2016,09,14,17,02,18.10
2016,09,14,17,03,18.10
2016,09,14,17,04,18.10
2016,09,14,17,05,18.10
2016,09,14,17,06,18.00
2016,09,14,17,07,18.00
2016,09,14,17,08,17.90
2016,09,14,17,09,17.90
2016,09,14,17,10,17.90
2016,09,14,17,11,17.90
2016,09,14,17,12,17.90
2016,09,14,17,13,17.80
2016,09,14,17,14,17.80
2016,09,14,17,15,17.80
2016,09,14,17,16,17.80
2016,09,14,17,17,17.80
2016,09,14,17,18,17.80
2016,09,14,17,19,17.80
2016,09,14,17,20,17.80
2016,09,14,17,21,17.80
2016,09,14,17,22,17.70
2016,09,14,17,23,17.70
2016,09,14,17,24,17.70
2016,09,14,17,25,17.70
2016,09,14,17,26,17.60
2016,09,14,17,27,17.60